| time (UTC) | temp C | wind direction | speed KPH | gust KPH | rain 1hr cm | rain 24hr cm | rain mn cm | humidity % | barometer mb |
| 20260507200352 | 22 | 30 | 1.6 | 12.9 | 0.00 | 0.00 | 0.00 | 29 | 1008.8 |
| 20260507195348 | 22 | 296 | 8.0 | 19.3 | 0.00 | 0.00 | 0.00 | 29 | 1008.8 |
| 20260507194324 | 22 | 310 | 6.4 | 19.3 | 0.00 | 0.00 | 0.00 | 29 | 1008.8 |
| 20260507193351 | 22 | 291 | 3.2 | 19.3 | 0.00 | 0.00 | 0.00 | 29 | 1008.9 |
| 20260507192347 | 22 | 325 | 3.2 | 16.1 | 0.00 | 0.00 | 0.00 | 29 | 1008.9 |
| 20260507191339 | 22 | 329 | 6.4 | 17.7 | 0.00 | 0.00 | 0.00 | 29 | 1009.0 |
| 20260507190326 | 22 | 355 | 6.4 | 20.9 | 0.00 | 0.00 | 0.00 | 30 | 1009.0 |
| 20260507185328 | 22 | 22 | 3.2 | 16.1 | 0.00 | 0.00 | 0.00 | 30 | 1009.0 |
| 20260507184352 | 21 | 248 | 1.6 | 19.3 | 0.00 | 0.00 | 0.00 | 30 | 1009.1 |
| 20260507183328 | 21 | 278 | 3.2 | 12.9 | 0.00 | 0.00 | 0.00 | 31 | 1009.2 |
| 20260507182348 | 21 | 328 | 1.6 | 12.9 | 0.00 | 0.00 | 0.00 | 30 | 1009.1 |
| 20260507181350 | 21 | 311 | 3.2 | 9.7 | 0.00 | 0.00 | 0.00 | 30 | 1009.2 |
| 20260507180350 | 21 | 297 | 1.6 | 20.9 | 0.00 | 0.00 | 0.00 | 32 | 1009.2 |
| 20260507175345 | 21 | 276 | 1.6 | 12.9 | 0.00 | 0.00 | 0.00 | 31 | 1009.2 |
| 20260507174344 | 20 | 289 | 4.8 | 17.7 | 0.00 | 0.00 | 0.00 | 31 | 1009.2 |
| 20260507173339 | 20 | 304 | 1.6 | 16.1 | 0.00 | 0.00 | 0.00 | 31 | 1009.1 |
| 20260507172327 | 20 | 313 | 3.2 | 11.3 | 0.00 | 0.00 | 0.00 | 31 | 1009.2 |
| 20260507171411 | 20 | 296 | 8.0 | 19.3 | 0.00 | 0.00 | 0.00 | 30 | 1009.2 |
| 20260507170349 | 20 | 316 | 1.6 | 20.9 | 0.00 | 0.00 | 0.00 | 31 | 1009.1 |
| 20260507165326 | 20 | 315 | 4.8 | 19.3 | 0.00 | 0.00 | 0.00 | 31 | 1009.2 |
| 20260507164352 | 20 | 289 | 1.6 | 12.9 | 0.00 | 0.00 | 0.00 | 33 | 1009.1 |
| 20260507163349 | 19 | 19 | 1.6 | 8.0 | 0.00 | 0.00 | 0.00 | 34 | 1009.1 |
| 20260507162344 | 19 | 325 | 1.6 | 14.5 | 0.00 | 0.00 | 0.00 | 34 | 1009.1 |
| 20260507161348 | 18 | 324 | 3.2 | 14.5 | 0.00 | 0.00 | 0.00 | 36 | 1009.1 |
| 20260507160326 | 18 | 297 | 0.0 | 16.1 | 0.00 | 0.00 | 0.00 | 37 | 1009.1 |
| 20260507155345 | 18 | 292 | 1.6 | 11.3 | 0.00 | 0.00 | 0.00 | 39 | 1009.1 |
| 20260507154348 | 17 | 306 | 1.6 | 14.5 | 0.00 | 0.00 | 0.00 | 41 | 1009.1 |
| 20260507153325 | 17 | 291 | 1.6 | 20.9 | 0.00 | 0.00 | 0.00 | 39 | 1009.1 |
| 20260507152351 | 17 | 296 | 1.6 | 16.1 | 0.00 | 0.00 | 0.00 | 38 | 1009.0 |
| 20260507151329 | 17 | 262 | 1.6 | 16.1 | 0.00 | 0.00 | 0.00 | 39 | 1009.0 |
| 20260507150352 | 17 | 229 | 0.0 | 16.1 | 0.00 | 0.00 | 0.00 | 41 | 1009.0 |
| 20260507145326 | 16 | 305 | 0.0 | 11.3 | 0.00 | 0.00 | 0.00 | 44 | 1009.0 |
| 20260507144352 | 15 | 47 | 0.0 | 11.3 | 0.00 | 0.00 | 0.00 | 46 | 1009.1 |
| 20260507143334 | 14 | 271 | 0.0 | 11.3 | 0.00 | 0.00 | 0.00 | 49 | 1009.1 |
| 20260507142354 | 14 | 283 | 1.6 | 12.9 | 0.00 | 0.00 | 0.00 | 50 | 1009.0 |
| 20260507141325 | 13 | 271 | 1.6 | 8.0 | 0.00 | 0.00 | 0.00 | 51 | 1008.9 |
| 20260507140328 | 13 | 299 | 1.6 | 6.4 | 0.00 | 0.00 | 0.00 | 51 | 1009.0 |
| 20260507135351 | 13 | 313 | 3.2 | 9.7 | 0.00 | 0.00 | 0.00 | 52 | 1008.9 |
| 20260507134348 | 13 | 321 | 1.6 | 6.4 | 0.00 | 0.00 | 0.00 | 52 | 1008.8 |
| 20260507133325 | 13 | 295 | 1.6 | 9.7 | 0.00 | 0.00 | 0.00 | 54 | 1008.7 |
| 20260507132348 | 12 | 308 | 0.0 | 6.4 | 0.00 | 0.00 | 0.00 | 56 | 1008.7 |
| 20260507131324 | 12 | 293 | 0.0 | 4.8 | 0.00 | 0.00 | 0.00 | 58 | 1008.6 |
| 20260507130330 | 11 | 291 | 0.0 | 3.2 | 0.00 | 0.00 | 0.00 | 61 | 1008.5 |
| 20260507125351 | 11 | 298 | 0.0 | 3.2 | 0.00 | 0.00 | 0.00 | 62 | 1008.4 |
| 20260507124328 | 10 | 286 | 0.0 | 1.6 | 0.00 | 0.00 | 0.00 | 64 | 1008.3 |
| 20260507123351 | 10 | 254 | 0.0 | 0.0 | 0.00 | 0.00 | 0.00 | 65 | 1008.1 |
| 20260507122347 | 10 | 272 | 0.0 | 1.6 | 0.00 | 0.00 | 0.00 | 65 | 1008.1 |
| 20260507121324 | 10 | 279 | 0.0 | 1.6 | 0.00 | 0.00 | 0.00 | 64 | 1007.9 |
| 20260507120327 | 10 | 250 | 0.0 | 0.0 | 0.00 | 0.00 | 0.00 | 64 | 1007.9 |
| 20260507115326 | 11 | 263 | 0.0 | 1.6 | 0.00 | 0.00 | 0.00 | 64 | 1007.9 |
| 20260507114348 | 11 | 205 | 0.0 | 1.6 | 0.00 | 0.00 | 0.00 | 63 | 1007.7 |
| 20260507113326 | 11 | 315 | 0.0 | 1.6 | 0.00 | 0.00 | 0.00 | 63 | 1007.6 |
| 20260507112408 | 11 | 230 | 0.0 | 1.6 | 0.00 | 0.00 | 0.00 | 64 | 1007.5 |
| 20260507111327 | 11 | 261 | 0.0 | 1.6 | 0.00 | 0.00 | 0.00 | 64 | 1007.5 |
| 20260507110354 | 11 | 262 | 0.0 | 1.6 | 0.00 | 0.00 | 0.00 | 65 | 1007.4 |
| 20260507105328 | 11 | 191 | 0.0 | 0.0 | 0.00 | 0.00 | 0.00 | 64 | 1007.4 |
| 20260507104329 | 11 | 218 | 0.0 | 1.6 | 0.00 | 0.00 | 0.00 | 64 | 1007.3 |
| 20260507103351 | 11 | 294 | 0.0 | 0.0 | 0.00 | 0.00 | 0.00 | 64 | 1007.3 |
| 20260507102348 | 11 | 251 | 0.0 | 0.0 | 0.00 | 0.00 | 0.00 | 64 | 1007.2 |
| 20260507101330 | 11 | 232 | 0.0 | 1.6 | 0.00 | 0.00 | 0.00 | 64 | 1007.3 |
| 20260507100334 | 11 | 217 | 0.0 | 0.0 | 0.00 | 0.00 | 0.00 | 64 | 1007.2 |
| 20260507095415 | 11 | 178 | 0.0 | 1.6 | 0.00 | 0.00 | 0.00 | 64 | 1007.1 |
| 20260507094350 | 11 | 196 | 0.0 | 1.6 | 0.00 | 0.00 | 0.00 | 63 | 1007.1 |
| 20260507093351 | 12 | 163 | 0.0 | 1.6 | 0.00 | 0.00 | 0.00 | 63 | 1007.0 |
| 20260507092348 | 11 | 176 | 0.0 | 0.0 | 0.00 | 0.00 | 0.00 | 63 | 1007.0 |
| 20260507091346 | 11 | 205 | 0.0 | 1.6 | 0.00 | 0.00 | 0.00 | 64 | 1007.1 |
| 20260507090325 | 11 | 193 | 0.0 | 1.6 | 0.00 | 0.00 | 0.00 | 64 | 1007.1 |
| 20260507085331 | 11 | 177 | 0.0 | 0.0 | 0.00 | 0.00 | 0.00 | 64 | 1007.0 |
| 20260507084337 | 11 | 211 | 0.0 | 1.6 | 0.00 | 0.00 | 0.00 | 64 | 1007.0 |
| 20260507083333 | 11 | 199 | 0.0 | 1.6 | 0.00 | 0.00 | 0.00 | 64 | 1007.0 |
| 20260507082337 | 11 | 187 | 0.0 | 0.0 | 0.00 | 0.00 | 0.00 | 64 | 1007.0 |
| 20260507081325 | 11 | 184 | 0.0 | 0.0 | 0.00 | 0.00 | 0.00 | 64 | 1007.0 |
| 20260507080413 | 12 | 190 | 0.0 | 3.2 | 0.00 | 0.00 | 0.00 | 65 | 1007.0 |
| 20260507075348 | 12 | 193 | 0.0 | 6.4 | 0.00 | 0.00 | 0.00 | 64 | 1007.1 |
| 20260507074324 | 12 | 190 | 0.0 | 6.4 | 0.00 | 0.00 | 0.00 | 64 | 1007.0 |
| 20260507073330 | 12 | 201 | 0.0 | 3.2 | 0.00 | 0.00 | 0.00 | 65 | 1007.2 |
| 20260507072350 | 12 | 209 | 0.0 | 4.8 | 0.00 | 0.00 | 0.00 | 65 | 1007.2 |
| 20260507071410 | 12 | 180 | 0.0 | 0.0 | 0.00 | 0.00 | 0.00 | 64 | 1007.2 |
| 20260507070348 | 12 | 171 | 0.0 | 1.6 | 0.00 | 0.00 | 0.00 | 64 | 1007.3 |
| 20260507065326 | 12 | 196 | 0.0 | 1.6 | 0.00 | 0.00 | 0.00 | 63 | 1007.3 |
| 20260507064330 | 12 | 281 | 0.0 | 0.0 | 0.00 | 0.00 | 0.00 | 63 | 1007.3 |
| 20260507063329 | 12 | 281 | 0.0 | 0.0 | 0.00 | 0.00 | 0.00 | 64 | 1007.1 |
| 20260507062331 | 13 | 281 | 0.0 | 0.0 | 0.00 | 0.00 | 0.00 | 63 | 1007.0 |
| 20260507061333 | 13 | 302 | 0.0 | 0.0 | 0.00 | 0.00 | 0.00 | 62 | 1007.8 |
| 20260507060327 | 13 | 273 | 0.0 | 0.0 | 0.00 | 0.00 | 0.00 | 60 | 1007.5 |
| 20260507055350 | 13 | 265 | 0.0 | 0.0 | 0.00 | 0.00 | 0.00 | 60 | 1007.4 |
| 20260507054348 | 13 | 265 | 0.0 | 0.0 | 0.00 | 0.00 | 0.00 | 60 | 1007.2 |
| 20260507053347 | 12 | 263 | 0.0 | 1.6 | 0.00 | 0.00 | 0.00 | 61 | 1007.4 |
| 20260507052323 | 12 | 244 | 0.0 | 1.6 | 0.00 | 0.00 | 0.00 | 61 | 1007.5 |
| 20260507051329 | 12 | 298 | 0.0 | 1.6 | 0.00 | 0.00 | 0.00 | 61 | 1007.4 |
| 20260507050332 | 13 | 220 | 0.0 | 0.0 | 0.00 | 0.00 | 0.00 | 59 | 1007.4 |
| 20260507045334 | 13 | 220 | 0.0 | 0.0 | 0.00 | 0.00 | 0.00 | 58 | 1007.3 |
| 20260507044330 | 13 | 220 | 0.0 | 0.0 | 0.00 | 0.00 | 0.00 | 56 | 1007.0 |
| 20260507043351 | 14 | 220 | 0.0 | 0.0 | 0.00 | 0.00 | 0.00 | 55 | 1007.0 |
| 20260507042328 | 14 | 205 | 0.0 | 0.0 | 0.00 | 0.00 | 0.00 | 55 | 1007.0 |
| 20260507041350 | 14 | 194 | 0.0 | 1.6 | 0.00 | 0.00 | 0.00 | 55 | 1006.9 |
| 20260507040353 | 14 | 170 | 0.0 | 1.6 | 0.00 | 0.00 | 0.00 | 54 | 1006.8 |
| 20260507035326 | 15 | 193 | 0.0 | 3.2 | 0.00 | 0.00 | 0.00 | 53 | 1006.7 |
| 20260507034349 | 15 | 177 | 1.6 | 6.4 | 0.00 | 0.00 | 0.00 | 50 | 1006.4 |
| 20260507033332 | 16 | 173 | 0.0 | 1.6 | 0.00 | 0.00 | 0.00 | 49 | 1006.0 |
| 20260507032337 | 16 | 51 | 0.0 | 1.6 | 0.00 | 0.00 | 0.00 | 46 | 1005.9 |
| 20260507031328 | 16 | 191 | 0.0 | 1.6 | 0.00 | 0.00 | 0.00 | 40 | 1007.0 |
| 20260507030328 | 16 | 240 | 0.0 | 1.6 | 0.00 | 0.00 | 0.00 | 39 | 1006.8 |
| 20260507025352 | 16 | 195 | 0.0 | 1.6 | 0.00 | 0.00 | 0.00 | 39 | 1006.7 |
| 20260507024350 | 16 | 211 | 0.0 | 4.8 | 0.00 | 0.00 | 0.00 | 39 | 1006.7 |
| 20260507023348 | 17 | 242 | 0.0 | 4.8 | 0.00 | 0.00 | 0.00 | 36 | 1006.8 |
| 20260507022325 | 17 | 205 | 0.0 | 1.6 | 0.00 | 0.00 | 0.00 | 36 | 1006.8 |
| 20260507021332 | 17 | 198 | 1.6 | 4.8 | 0.00 | 0.00 | 0.00 | 36 | 1006.9 |
| 20260507020358 | 17 | 178 | 0.0 | 4.8 | 0.00 | 0.00 | 0.00 | 30 | 1006.5 |
| 20260507015334 | 18 | 196 | 0.0 | 6.4 | 0.00 | 0.00 | 0.00 | 30 | 1006.3 |
| 20260507014355 | 18 | 178 | 0.0 | 4.8 | 0.00 | 0.00 | 0.00 | 29 | 1005.8 |
| 20260507013341 | 18 | 137 | 0.0 | 1.6 | 0.00 | 0.00 | 0.00 | 29 | 1005.7 |
| 20260507012332 | 18 | 76 | 0.0 | 3.2 | 0.00 | 0.00 | 0.00 | 29 | 1005.6 |
| 20260507011331 | 18 | 90 | 0.0 | 1.6 | 0.00 | 0.00 | 0.00 | 28 | 1005.8 |
| 20260507010330 | 19 | 146 | 0.0 | 1.6 | 0.00 | 0.00 | 0.00 | 28 | 1005.7 |
| 20260507005352 | 19 | 96 | 0.0 | 1.6 | 0.00 | 0.00 | 0.00 | 28 | 1005.6 |
| 20260507004348 | 19 | 203 | 0.0 | 1.6 | 0.00 | 0.00 | 0.00 | 28 | 1005.5 |
| 20260507003349 | 19 | 51 | 0.0 | 1.6 | 0.00 | 0.00 | 0.00 | 28 | 1005.5 |
| 20260507002324 | 20 | 157 | 0.0 | 6.4 | 0.00 | 0.00 | 0.00 | 28 | 1005.4 |
| 20260507001350 | 20 | 88 | 1.6 | 4.8 | 0.00 | 0.00 | 0.00 | 27 | 1005.4 |
| 20260507000328 | 20 | 202 | 0.0 | 4.8 | 0.00 | 0.00 | 0.00 | 27 | 1005.5 |
| 20260506235351 | 20 | 30 | 0.0 | 3.2 | 0.00 | 0.00 | 0.00 | 28 | 1005.4 |
| 20260506234348 | 20 | 125 | 0.0 | 6.4 | 0.00 | 0.00 | 0.00 | 28 | 1005.5 |
| 20260506233344 | 20 | 122 | 0.0 | 3.2 | 0.00 | 0.00 | 0.00 | 28 | 1005.3 |
| 20260506232336 | 20 | 105 | 0.0 | 6.4 | 0.00 | 0.00 | 0.00 | 28 | 1005.3 |
| 20260506231332 | 20 | 28 | 0.0 | 4.8 | 0.00 | 0.00 | 0.00 | 28 | 1005.4 |
| 20260506230333 | 20 | 31 | 1.6 | 6.4 | 0.00 | 0.00 | 0.00 | 26 | 1005.4 |
| 20260506225328 | 20 | 87 | 1.6 | 4.8 | 0.00 | 0.00 | 0.00 | 27 | 1005.5 |
| 20260506224352 | 20 | 93 | 0.0 | 6.4 | 0.00 | 0.00 | 0.00 | 27 | 1005.5 |
| 20260506223339 | 20 | 247 | 0.0 | 6.4 | 0.00 | 0.00 | 0.00 | 27 | 1005.8 |
| 20260506222325 | 20 | 88 | 1.6 | 4.8 | 0.00 | 0.00 | 0.00 | 27 | 1005.8 |
| 20260506221351 | 20 | 80 | 0.0 | 6.4 | 0.00 | 0.00 | 0.00 | 26 | 1005.9 |
| 20260506220347 | 20 | 5 | 0.0 | 6.4 | 0.00 | 0.00 | 0.00 | 27 | 1006.1 |
| 20260506215330 | 21 | 186 | 0.0 | 6.4 | 0.00 | 0.00 | 0.00 | 27 | 1006.2 |
| 20260506214335 | 21 | 208 | 1.6 | 11.3 | 0.00 | 0.00 | 0.00 | 25 | 1006.3 |
| 20260506213328 | 22 | 70 | 1.6 | 4.8 | 0.00 | 0.00 | 0.00 | 24 | 1006.5 |
| 20260506212328 | 21 | 265 | 0.0 | 8.0 | 0.00 | 0.00 | 0.00 | 24 | 1006.6 |
| 20260506211351 | 21 | 204 | 1.6 | 9.7 | 0.00 | 0.00 | 0.00 | 26 | 1006.7 |
| 20260506210354 | 20 | 53 | 1.6 | 8.0 | 0.00 | 0.00 | 0.00 | 26 | 1006.7 |
| 20260506205329 | 20 | 153 | 3.2 | 14.5 | 0.00 | 0.00 | 0.00 | 27 | 1006.9 |
| 20260506204350 | 20 | 100 | 1.6 | 9.7 | 0.00 | 0.00 | 0.00 | 26 | 1006.9 |
| 20260506203410 | 20 | 125 | 1.6 | 6.4 | 0.00 | 0.00 | 0.00 | 27 | 1007.0 |
| 20260506202324 | 20 | 70 | 1.6 | 9.7 | 0.00 | 0.00 | 0.00 | 27 | 1007.1 |
| 20260506201347 | 19 | 201 | 1.6 | 8.0 | 0.00 | 0.00 | 0.00 | 26 | 1007.3 |